When you browse on this site, cookies collect data to enhance your experience and personalize the content and advertising you see.
Visit our Privacy Policy to learn more. By continuing to use the site, you agree to this use of cookies and data.
  • In Schweiz
  • Länderverzeichnis
  • Für 7 Tage
  • Wassertemperatur
  • Satellitenkarten
  • Wetterkarte
  • Widgets
  • user-avatar
    Anmelden

    Stündliche Wetter Xiongzhou

    Heute, 27 Mai, Montag

    Zeit Temperatur Niederschläge Wind Luftdruck Luftfeuchtigkeit
    00:00 +26°C° 0.2 mm 1 m/S 744 mmHg 93%
    01:00 +26°C° 0.2 mm 1 m/S 744 mmHg 93%
    02:00 +24°C° 0 mm 0 m/S 744 mmHg 93%
    03:00 +26°C° 0.7 mm 1 m/S 744 mmHg 94%
    04:00 +26°C° 0.7 mm 1 m/S 744 mmHg 95%
    05:00 +26°C° 0.7 mm 1 m/S 744 mmHg 95%
    06:00 +27°C° 0.4 mm 1 m/S 744 mmHg 93%
    07:00 +25°C° 0.4 mm 0 m/S 745 mmHg 90%
    08:00 +26°C° 0.4 mm 0 m/S 745 mmHg 87%
    09:00 +30°C° 2.1 mm 1 m/S 745 mmHg 83%
    10:00 +31°C° 2.1 mm 1 m/S 745 mmHg 79%
    11:00 +32°C° 2.1 mm 2 m/S 745 mmHg 75%
    12:00 +32°C° 1.7 mm 2 m/S 745 mmHg 74%
    13:00 +34°C° 1.7 mm 2 m/S 744 mmHg 73%
    14:00 +34°C° 1.7 mm 2 m/S 744 mmHg 71%
    15:00 +32°C° 4.2 mm 1 m/S 744 mmHg 78%
    16:00 +31°C° 4.2 mm 1 m/S 744 mmHg 84%
    17:00 +29°C° 4.2 mm 1 m/S 744 mmHg 90%
    18:00 +27°C° 2.5 mm 0 m/S 744 mmHg 90%
    19:00 +26°C° 2.5 mm 0 m/S 744 mmHg 91%
    20:00 +25°C° 2.5 mm 0 m/S 744 mmHg 91%
    21:00 +25°C° 2.1 mm 0 m/S 745 mmHg 91%
    22:00 +25°C° 2.1 mm 0 m/S 746 mmHg 92%
    23:00 +25°C° 2.1 mm 0 m/S 746 mmHg 92%

    Morgen, 28 Mai, Dienstag

    Zeit Temperatur Niederschläge Wind Luftdruck Luftfeuchtigkeit
    00:00 +25°C° 1.5 mm 0 m/S 746 mmHg 93%
    01:00 +27°C° 1.5 mm 1 m/S 746 mmHg 94%
    02:00 +26°C° 1.5 mm 1 m/S 745 mmHg 94%
    03:00 +26°C° 1 mm 1 m/S 745 mmHg 95%
    04:00 +26°C° 1 mm 1 m/S 745 mmHg 95%
    05:00 +26°C° 1 mm 1 m/S 745 mmHg 96%
    06:00 +26°C° 1.3 mm 1 m/S 746 mmHg 95%
    07:00 +26°C° 1.3 mm 1 m/S 746 mmHg 95%
    08:00 +26°C° 1.3 mm 1 m/S 746 mmHg 94%
    09:00 +26°C° 2.7 mm 1 m/S 746 mmHg 95%
    10:00 +26°C° 2.7 mm 1 m/S 747 mmHg 95%
    11:00 +26°C° 2.7 mm 1 m/S 747 mmHg 95%
    12:00 +25°C° 1.5 mm 1 m/S 746 mmHg 95%
    13:00 +25°C° 1.5 mm 1 m/S 746 mmHg 96%
    14:00 +23°C° 1.5 mm 0 m/S 746 mmHg 96%
    15:00 +23°C° 0.5 mm 0 m/S 746 mmHg 96%
    16:00 +23°C° 0.5 mm 0 m/S 746 mmHg 96%
    17:00 +23°C° 0.5 mm 0 m/S 745 mmHg 96%
    18:00 +23°C° 0.1 mm 0 m/S 746 mmHg 96%
    19:00 +23°C° 0.1 mm 0 m/S 746 mmHg 95%
    20:00 +23°C° 0.1 mm 0 m/S 747 mmHg 95%
    21:00 +24°C° 0.1 mm 1 m/S 747 mmHg 95%
    22:00 +24°C° 0.1 mm 1 m/S 747 mmHg 95%
    23:00 +24°C° 0.1 mm 1 m/S 748 mmHg 94%

    übermorgen, 29 Mai, Mittwoch

    Zeit Temperatur Niederschläge Wind Luftdruck Luftfeuchtigkeit
    00:00 +24°C° 0.8 mm 1 m/S 747 mmHg 94%
    01:00 +23°C° 0.8 mm 1 m/S 747 mmHg 94%
    02:00 +21°C° 0.8 mm 0 m/S 746 mmHg 94%
    03:00 +23°C° 1.3 mm 1 m/S 746 mmHg 95%
    04:00 +23°C° 1.3 mm 1 m/S 746 mmHg 95%
    05:00 +22°C° 1.3 mm 1 m/S 746 mmHg 95%
    06:00 +22°C° 0.7 mm 1 m/S 746 mmHg 95%
    07:00 +23°C° 0.7 mm 1 m/S 747 mmHg 95%
    08:00 +23°C° 0.7 mm 1 m/S 747 mmHg 94%
    09:00 +23°C° 0.5 mm 1 m/S 747 mmHg 94%
    10:00 +23°C° 0.5 mm 1 m/S 748 mmHg 93%
    11:00 +23°C° 0.5 mm 1 m/S 748 mmHg 92%
    12:00 +23°C° 0.1 mm 1 m/S 747 mmHg 91%
    13:00 +23°C° 0.1 mm 1 m/S 747 mmHg 90%
    14:00 +24°C° 0.1 mm 1 m/S 747 mmHg 89%
    15:00 +23°C° 0.3 mm 1 m/S 746 mmHg 90%
    16:00 +23°C° 0.3 mm 1 m/S 746 mmHg 91%
    17:00 +23°C° 0.3 mm 1 m/S 746 mmHg 92%
    18:00 +21°C° 0.2 mm 0 m/S 746 mmHg 93%
    19:00 +21°C° 0.2 mm 0 m/S 746 mmHg 94%
    20:00 +20°C° 0.2 mm 0 m/S 747 mmHg 95%
    21:00 +21°C° 0 mm 0 m/S 747 mmHg 95%
    22:00 +21°C° 0 mm 0 m/S 747 mmHg 95%
    23:00 +21°C° 0 mm 0 m/S 748 mmHg 95%

    30 Mai, Donnerstag

    Zeit Temperatur Niederschläge Wind Luftdruck Luftfeuchtigkeit
    00:00 +21°C° 0 mm 0 m/S 747 mmHg 95%
    01:00 +21°C° 0 mm 0 m/S 747 mmHg 95%
    02:00 +21°C° 0 mm 0 m/S 747 mmHg 95%
    03:00 +21°C° 0 mm 0 m/S 746 mmHg 95%
    04:00 +21°C° 0 mm 0 m/S 746 mmHg 96%
    05:00 +21°C° 0 mm 0 m/S 746 mmHg 96%
    06:00 +22°C° 0 mm 0 m/S 747 mmHg 93%
    07:00 +23°C° 0 mm 0 m/S 747 mmHg 91%
    08:00 +24°C° 0 mm 0 m/S 747 mmHg 89%
    09:00 +27°C° 0 mm 1 m/S 747 mmHg 86%
    10:00 +28°C° 0 mm 1 m/S 747 mmHg 84%
    11:00 +28°C° 0 mm 1 m/S 747 mmHg 82%
    12:00 +29°C° 0.1 mm 1 m/S 746 mmHg 78%
    13:00 +30°C° 0.1 mm 1 m/S 746 mmHg 75%
    14:00 +31°C° 0.1 mm 1 m/S 745 mmHg 72%
    15:00 +31°C° 0.3 mm 1 m/S 745 mmHg 73%
    16:00 +31°C° 0.3 mm 2 m/S 744 mmHg 74%
    17:00 +31°C° 0.3 mm 2 m/S 744 mmHg 75%
    18:00 +30°C° 0.4 mm 1 m/S 744 mmHg 80%
    19:00 +28°C° 0.4 mm 1 m/S 745 mmHg 86%
    20:00 +27°C° 0.4 mm 1 m/S 745 mmHg 91%
    21:00 +27°C° 0.6 mm 1 m/S 746 mmHg 92%
    22:00 +26°C° 0.6 mm 1 m/S 746 mmHg 93%
    23:00 +26°C° 0.6 mm 1 m/S 747 mmHg 94%

    31 Mai, Freitag

    Zeit Temperatur Niederschläge Wind Luftdruck Luftfeuchtigkeit
    00:00 +26°C° 0.2 mm 1 m/S 746 mmHg 95%
    01:00 +26°C° 0.2 mm 1 m/S 746 mmHg 95%
    02:00 +26°C° 0.2 mm 1 m/S 745 mmHg 96%
    03:00 +25°C° 0.5 mm 1 m/S 745 mmHg 96%
    04:00 +25°C° 0.5 mm 1 m/S 745 mmHg 97%
    05:00 +25°C° 0.5 mm 1 m/S 745 mmHg 97%
    06:00 +26°C° 0.7 mm 1 m/S 746 mmHg 97%
    07:00 +26°C° 0.7 mm 1 m/S 746 mmHg 96%
    08:00 +26°C° 0.7 mm 1 m/S 746 mmHg 96%
    09:00 +27°C° 0.4 mm 1 m/S 746 mmHg 94%
    10:00 +27°C° 0.4 mm 1 m/S 746 mmHg 92%
    11:00 +28°C° 0.4 mm 1 m/S 746 mmHg 90%
    12:00 +29°C° 0.2 mm 2 m/S 746 mmHg 86%
    13:00 +30°C° 0.2 mm 2 m/S 745 mmHg 82%
    14:00 +31°C° 0.2 mm 3 m/S 744 mmHg 78%
    15:00 +31°C° 0.2 mm 2 m/S 744 mmHg 79%
    16:00 +30°C° 0.2 mm 2 m/S 744 mmHg 79%
    17:00 +30°C° 0.2 mm 2 m/S 744 mmHg 80%
    18:00 +29°C° 0.3 mm 1 m/S 744 mmHg 84%
    19:00 +28°C° 0.3 mm 1 m/S 745 mmHg 88%
    20:00 +27°C° 0.3 mm 1 m/S 745 mmHg 91%
    21:00 +27°C° 0.2 mm 1 m/S 745 mmHg 92%
    22:00 +27°C° 0.2 mm 1 m/S 746 mmHg 93%
    23:00 +26°C° 0.2 mm 1 m/S 746 mmHg 93%

    1 Juni, Samstag

    Zeit Temperatur Niederschläge Wind Luftdruck Luftfeuchtigkeit
    00:00 +26°C° 1.3 mm 1 m/S 745 mmHg 94%
    01:00 +26°C° 1.3 mm 1 m/S 745 mmHg 96%
    02:00 +26°C° 1.3 mm 1 m/S 744 mmHg 97%
    03:00 +26°C° 0.9 mm 1 m/S 744 mmHg 97%
    04:00 +26°C° 0.9 mm 1 m/S 744 mmHg 97%
    05:00 +26°C° 0.9 mm 1 m/S 744 mmHg 97%
    06:00 +26°C° 0.4 mm 1 m/S 745 mmHg 97%
    07:00 +24°C° 0.4 mm 0 m/S 745 mmHg 96%
    08:00 +25°C° 0.4 mm 0 m/S 745 mmHg 96%
    09:00 +25°C° 0.5 mm 0 m/S 745 mmHg 93%
    10:00 +26°C° 0.5 mm 0 m/S 745 mmHg 90%
    11:00 +27°C° 0.5 mm 0 m/S 744 mmHg 87%
    12:00 +30°C° 0.9 mm 1 m/S 744 mmHg 86%
    13:00 +30°C° 0.9 mm 1 m/S 743 mmHg 85%
    14:00 +31°C° 0.9 mm 1 m/S 743 mmHg 84%
    15:00 +30°C° 1.4 mm 1 m/S 742 mmHg 85%
    16:00 +30°C° 1.4 mm 1 m/S 742 mmHg 87%
    17:00 +30°C° 1.4 mm 1 m/S 742 mmHg 88%
    18:00 +29°C° 1.4 mm 1 m/S 742 mmHg 90%
    19:00 +28°C° 1.4 mm 1 m/S 743 mmHg 92%
    20:00 +27°C° 1.4 mm 1 m/S 743 mmHg 94%
    21:00 +27°C° 0.3 mm 1 m/S 743 mmHg 95%
    22:00 +27°C° 0.3 mm 1 m/S 743 mmHg 95%
    23:00 +26°C° 0.3 mm 1 m/S 743 mmHg 95%
    Mehr zeigen